Regional Weather Roundup
Issued by NWS

Home | Current Version | Previous Version | Text Only | Print | Product List | Glossary On
Versions: 1 2 3 4 5 6 7 8 9 10 11 12 13 14 15 16 17 18 19 20 21 22 23 24 25 26 27 28 29 30 31 32 33 34 35 36 37 38 39 40 41 42 43 44 45 46 47 48 49 50
000
ASUS43 KDTX 062210
RWRMI
MICHIGAN HOURLY REGIONAL WEATHER ROUNDUP
NATIONAL WEATHER SERVICE DETROIT/PONTIAC MI
500 PM EST FRI MAR 06 2015

NOTE: "FAIR" INDICATES FEW OR NO CLOUDS BELOW 12,000 FEET WITH NO
SIGNIFICANT WEATHER AND/OR OBSTRUCTION TO VISIBILITY.

MIZ047>049-052>055-059>063-066>070-074>076-081>083-062300-
SOUTHEAST LOWER MICHIGAN

CITY           SKY/WX    TMP DP  RH WIND       PRES   REMARKS
ADRIAN         PTSUNNY   21   9  59 SW15      30.29F WCI   8
ALMA           SUNNY     22   7  50 S15       30.16F WCI   9
ANN ARBOR      PTSUNNY   20   6  55 SW16G23   30.26F WCI   6
BAD AXE        PTSUNNY   24   4  43 SW10      30.16F WCI  13
CARO           MOSUNNY   24   3  41 SW12G22   30.17F WCI  13
DETROIT CITY   SUNNY     24   4  42 SW18G28   30.27F WCI  10
DETROIT        MOSUNNY   22   8  55 S24       30.30F WCI   5
FLINT          PTSUNNY   26   0  32 SW12G21   30.21F WCI  16
GROSSE ILE     SUNNY     23  10  58 S17       30.28F WCI   9
HILLSDALE      PTSUNNY   23   5  46 S13       30.22F WCI  11
HOWELL         CLOUDY    24   1  38 S12G17    30.20F WCI  12

CITY           SKY/WX    TMP DP  RH WIND       PRES   REMARKS
JACKSON        PTSUNNY   23   2  40 S14       30.22F WCI  11
LAMBERTVILLE   SUNNY     27  10  50 SW8G17    30.31F WCI  18
LANSING        MOSUNNY   22   3  44 SW14      30.21F WCI   9
LAPEER         MOCLDY    24   1  36 SW17      30.20F WCI  10
MASON          CLOUDY    23   3  41 S9G16     30.21F WCI  13
MONROE         SUNNY     23   9  54 SW14      30.29F WCI  11
MT. CLEMENS    MOSUNNY   22   5  46 SW17      30.25F WCI   8
PONTIAC        PTSUNNY   21   3  45 S15G23    30.22F WCI   8
PORT HOPE        N/A     23   2  40 SW10G17   30.14F WCI  12
PORT HURON     MOSUNNY   21   9  58 S13G21    30.25F WCI   9
TRI CITIES     CLOUDY    24   4  42 S21G28    30.16F WCI   9
TROY           SUNNY     25   4  41 SW13      30.28F WCI  13
SAGINAW HB     SUNNY     25   9  50 SW16      30.17F WCI  12
$$
MIZ043>046-050>051-056>058-064>065-071>073-077>080-062300-
SOUTHWEST LOWER MICHIGAN

CITY           SKY/WX    TMP DP  RH WIND       PRES   REMARKS
BATTLE CREEK   SUNNY     23   5  46 S20       30.21F WCI   8
BENTON HARBOR  CLOUDY    23   8  52 S16G23    30.22F WCI  10
BIG RAPIDS     CLOUDY    24   5  44 S13       30.10F WCI  13
COLDWATER      PTSUNNY   23   6  47 S10       30.24F WCI  12
FREMONT        CLOUDY    22   6  50 SW18G25   30.15S WCI   7
HOLLAND        CLOUDY    25   7  46 S18G24    30.19F WCI  11
GRAND RAPIDS   PTSUNNY   24   5  44 S16       30.17F WCI  11
IONIA          FAIR      24   6  46 S17       30.16F WCI  10
KALAMAZOO      CLOUDY    22   6  50 S16       30.22F WCI   8
LUDINGTON      CLOUDY    24  17  74 S15G26    30.11F WCI  11
MARSHALL       PTSUNNY   22   4  47 S7G18     30.22F WCI  13
MOUNT PLEASANT MOSUNNY   25   4  41 S12       30.14F WCI  14
MUSKEGON       CLOUDY    22   9  57 S20G31    30.18S WCI   7
SOUTH HAVEN    CLOUDY    26   5  41 S15G22    30.21F WCI  13
$$
MIZ016>042-062300-
NORTHERN LOWER MICHIGAN

CITY           SKY/WX    TMP DP  RH WIND       PRES   REMARKS
ALPENA         PTSUNNY   28   9  44 S15       30.02F WCI  16
BEAVER ISLAND  CLOUDY    25  20  81 SW17G29   29.98S WCI  11
BELLAIRE       CLOUDY    30  12  47 SW16G29   30.02S WCI  19
CADILLAC       PTSUNNY   23  11  60 SW22G32   30.02F WCI   8
CHARLEVOIX     PTSUNNY   28  14  54 SW16G23   30.02F WCI  17
FRANKFORT      CLOUDY    25  19  80 S20G29    30.05F WCI  11
GAYLORD        CLOUDY    26  10  50 SW20G26   29.97F WCI  12
GRAYLING       MOSUNNY   27  10  49 S13G25    30.02F WCI  16
HARBOR SPRINGS PTSUNNY   28  13  54 SW18G26   29.98F WCI  15
HOUGHTON LAKE  SUNNY     24   8  50 S17       30.04F WCI  11
MANISTEE       CLOUDY    25  16  68 SW15G26   30.08F WCI  12
OSCODA         MOSUNNY   23   9  54 S15G24    30.09F WCI  10
PELLSTON       PTSUNNY   29  11  47 SW13G29   29.98F WCI  19
ROGERS CITY    MOSUNNY   30  10  43 SW15G22   30.00F WCI  19
TRAVERSE CITY  CLOUDY    29  13  51 SW18G29   30.01F WCI  16
$$
MIZ007>008-015-062300-
EASTERN UPPER MICHIGAN

CITY           SKY/WX    TMP DP  RH WIND       PRES   REMARKS
KINROSS        CLOUDY    25  19  80 SW17G29   29.95F WCI  11
MACKINAC ISLAN MOSUNNY   26  15  63 W16G25    29.97S WCI  13
NEWBERRY       LGT SNOW  23  17  78 S23G29    29.91F WCI   7
S. S. MARIE    CLOUDY    25  15  66 SW14G26   29.95S WCI  13
MUNISING         N/A     29   9  43 S10G18    29.90F WCI  20
$$
MIZ004>006-011>014-085-062300-
CENTRAL UPPER MICHIGAN

CITY           SKY/WX    TMP DP  RH WIND       PRES   REMARKS
MANISTIQUE     CLOUDY    26  14  62 SW12G26   29.94F WCI  15
ESCANABA       SUNNY     25  16  68 S17G25    29.94F WCI  11
MENOMINEE      SUNNY     28  12  50 SW17      29.96F WCI  16
SAWYER-GWINN   SUNNY     32  10  40 W12       29.85S WCI  23
$$
MIZ001>003-009>011-084-062300-
WESTERN UPPER MICHIGAN

CITY           SKY/WX    TMP DP  RH WIND       PRES   REMARKS
IRON MOUNTAIN  SUNNY     32  11  41 W12       29.89S WCI  23
HOUGHTON       SUNNY     25  13  60 W22G30    29.87S WCI  10
COPPER HARBOR    N/A     28  11  48 VRB7G24   29.88R WCI  21
IRONWOOD       SUNNY     30  12  47 W15       29.90R WCI  19
$$

ABBREVIATIONS USED IN REMARKS
   TC - TEMPERATURE IN CELSIUS
  WCI - WIND CHILL INDEX
   HX - HEAT INDEX
  VSB - VISIBILITY




USA.gov is the U.S. government's official web portal to all federal, state and local government web resources and services.